Location: Newark
(44.6166°N, 5.7097°E)
Time: 20:31:32
(UTC+00:00)

ISS - Visible Passes

Search period start: 11 December 2019 00:00
Search period end: 21 December 2019 00:00
Orbit: 411 x 421 km, 51.6° (Epoch: 12 December)

Date Brightness Start Highest point End Pass type
(mag) Time Alt. Az. Time Alt. Az. Time Alt. Az.
11 Dec -3.1 16:37:25 10° WNW 16:40:44 59° SW 16:44:02 10° SE visible
12 Dec -0.6 17:26:40 10° W 17:28:34 14° SW 17:30:27 10° SSW visible
13 Dec -1.0 16:37:28 10° W 16:40:12 23° SW 16:42:56 10° SSE visible
20 Dec -0.5 06:07:16 10° S 06:09:13 15° SE 06:11:09 10° E visible
